This demonstration page uses our WeatherBlox Daily Observations layout. Learn more.

Left ArrowRight Arrow

39.95238, -75.16362

Hourly Observations for September 28, 2019

Temp ( °F °C ) Dew Point ( °F °C ) Humidity (%) Winds ( mph kmh ) Pressure ( in mb ) Visibility ( mi km ) Precip ( " mm )
12:54 am 00:54 Partly Cloudy 65 18.3 58 14.4 78 78 SSE 3 6 30.13 1020 10 16 0.00 0.00
1:54 am 01:54 Partly Cloudy 65 18.3 59 15 81 81 S 3 6 30.13 1020 10 16 0.00 0.00
2:54 am 02:54 Mostly Cloudy 65 18.3 60 15.6 84 84 S 6 9 30.11 1020 10 16 0.00 0.00
3:54 am 03:54 Mostly Cloudy 64 17.8 60 15.6 87 87 SSW 7 11 30.11 1020 10 16 0.00 0.00
4:54 am 04:54 Mostly Cloudy 64 17.8 59 15 84 84 S 5 7 30.12 1020 10 16 0.00 0.00
5:54 am 05:54 Mostly Cloudy 63 17.2 59 15 87 87 S 5 7 30.13 1020 10 16 0.00 0.00
6:54 am 06:54 Partly Cloudy 63 17.2 59 15 87 87 Calm 30.13 1020 10 16 0.00 0.00
7:54 am 07:54 Partly Cloudy 65 18.3 61 16.1 87 87 S 5 7 30.13 1020 10 16 0.00 0.00
8:54 am 08:54 Partly Cloudy 68 20 61 16.1 78 78 SSW 7 11 30.13 1020 10 16 0.00 0.00
9:54 am 09:54 Mostly Cloudy 71 21.7 62 16.7 73 73 SSW 7 11 30.13 1020 10 16 0.00 0.00
10:12 am 10:12 Cloudy 73 22.8 63 17.2 71 71 WSW 8 13 30.13 1020 10 16 0.00 0.00
10:47 am 10:47 Mostly Cloudy 76 24.4 64 17.8 67 67 WSW 6 9 30.12 1020 10 16 0.00 0.00
10:54 am 10:54 Mostly Cloudy 75 23.9 64 17.8 69 69 W 8 13 30.12 1020 10 16 0.00 0.00
11:54 am 11:54 Partly Cloudy 80 26.7 66 18.9 62 62 SW 12 19 30.10 1019 10 16 0.00 0.00
12:54 pm 12:54 Mostly Cloudy 81 27.2 66 18.9 61 61 WSW 14 22 30.10 1019 10 16 0.00 0.00
1:54 pm 13:54 Mostly Cloudy 82 27.8 66 18.9 58 58 WSW 13 20 30.07 1018 10 16 0.00 0.00
2:54 pm 14:54 Partly Cloudy 84 28.9 67 19.4 57 57 SW 15 24 30.06 1018 10 16 0.00 0.00
3:54 pm 15:54 Partly Cloudy 84 28.9 68 20 59 59 SW 9 15 30.03 1017 10 16 0.00 0.00
4:54 pm 16:54 Partly Cloudy 84 28.9 68 20 59 59 SW 8 13 30.02 1017 10 16 0.00 0.00
5:54 pm 17:54 Partly Cloudy 84 28.9 69 20.6 61 61 WSW 9 15 30.03 1017 10 16 0.00 0.00
6:54 pm 18:54 Partly Cloudy 82 27.8 70 21.1 67 67 SW 8 13 30.05 1018 10 16 0.00 0.00
7:54 pm 19:54 Mostly Cloudy 80 26.7 69 20.6 69 69 S 5 7 30.05 1018 10 16 0.00 0.00
8:54 pm 20:54 Mostly Cloudy 78 25.6 70 21.1 76 76 S 5 7 30.07 1018 10 16 0.00 0.00
9:54 pm 21:54 Cloudy 77 25 70 21.1 79 79 SSW 5 7 30.09 1019 10 16 0.00 0.00
10:11 pm 22:11 Cloudy with Thunderstorms 77 25 70 21.1 79 79 Calm 30.09 1019 10 16 0.00 0.00
10:23 pm 22:23 Cloudy with Thunderstorms 77 25 71 21.7 82 82 WNW 7 11 30.11 1020 10 16 0.00 0.00
10:26 pm 22:26 Cloudy with Thunderstorms 78 25.6 71 21.7 79 79 NW 14 22 30.11 1020 7 11 0.00 0.00
10:32 pm 22:32 Cloudy with Thunderstorms 76 24.4 71 21.7 85 85 NW 10 17 30.11 1020 4 6 0.01 0.25
10:37 pm 22:37 Cloudy with Thunderstorms 75 23.9 71 21.7 88 88 NW 6 9 30.11 1020 7 11 0.16 4.06
10:42 pm 22:42 Cloudy with Thunderstorms 76 24.4 69 20.6 79 79 VRB 7 11 30.11 1020 10 16 0.16 4.06
10:54 pm 22:54 Cloudy with Thunderstorms 76 24.4 68 20 77 77 NE 5 7 30.10 1019 10 16 0.16 4.06
11:10 pm 23:10 Cloudy with Thunderstorms 74 23.3 70 21.1 88 88 SE 7 11 30.10 1019 10 16 0.00 0.00
11:34 pm 23:34 Cloudy 74 23.3 71 21.7 91 91 Calm 30.10 1019 10 16 0.00 0.00
11:54 pm 23:54 Cloudy with Light Rain 74 23.3 71 21.7 91 91 E 5 7 30.10 1019 10 16 0.00 0.00

Powered by AerisWeather